sat.trackr.live / text

‹ back to catalog

STARLINK-30276

NORAD 57652 · 2023-122W

PAYLOAD ACTIVE UNKNOWN

§ Identity

Operator
Country
US
Launch date
2023-08-17
Launch site
AFETR
Launch vehicle
Mass (kg)
RCS (m²)

Purposes: comms

External: N2YO · Heavens-Above · Gunter

§ Orbital elements

Epoch: 2026-05-25T01:03:03.200256Z

Period
94.27 min
Inclination
43.0060°
Eccentricity
0.0001618
Mean motion
15.27575241 rev/d
Perigee alt
482.0 km
Apogee alt
484.2 km
Semi-major
6,861.2 km
B*
1.0197e-4
RAAN
21.3505°
Arg perigee
261.4958°
Mean anomaly
98.5711°
Rev number
15,388

§ Raw data

STARLINK-302761 57652U 23122W   26145.04378704  .00002544  00000+0  10197-3 0  99912 57652  43.0060  21.3505 0001618 261.4958  98.5711 15.27575241153882

JSON: /api/v1/satellites/57652 · /tle

For live sub-satellite position, see the globe view (requires WebGL).

§ Visibility from observer

Set your observer location to see the next 7 days of passes ≥ 10°. The values pass through the URL so the page stays shareable.

No JS? Fill the form by hand. The geolocation button needs JavaScript.